Location: Houhaj�rvi
(61.2833°N, 23.0000°E)
Time: 23:51:22
(UTC+00:00)

SeaSat 1 - Pass Details

Date: 27 February 2020
Orbit: 744 x 747 km, 108.0° (Epoch: 09 April)

Event Time Altitude Azimuth Distance (km) Brightness Sun altitude
Exits shadow 16:45:16 - 43° (NE) 3,187 5.3 -7.9°
Reaches altitude 10° 16:47:33 10° 38° (NE) 2,279 4.6 -8.1°
Maximum altitude 16:52:16 46° 327° (NNW) 1,007 3.4 -8.7°
Drops below altitude 10° 16:56:58 10° 255° (WSW) 2,272 6.4 -9.3°
Sets 16:59:18 0° 249° (WSW) 3,194 7.2 -9.5°
